Tracking 19854 objects as of 22-Sep-2019
HD Live streaming from Space Station
objects crossing your sky now

COSMOS 1275 DEB

Track COSMOS 1275 DEB now!
10-day predictions


NORAD ID: 14440
Int'l Code: 1981-053JK
Perigee: 953.4 km
Apogee: 1,122.0 km
Inclination: 82.9 °
Period: 105.8 minutes
Semi major axis: 7408 km
RCS: 0.017 m2 (small)
Launch date: June 4, 1981
Source: Commonwealth of Independent States (former USSR) (CIS)
Launch site: PLESETSK MISSILE AND SPACE COMPLEX (PKMTR)

Note: This is SATELLITE DEBRIS
aabbcc
Your satellite tracking list
Your tracking list is empty




NASA's NSSDC Master Catalog

Two Line Element Set (TLE):
1 14440U 81053JG  19264.81895714  .00000624  00000-0  76773-3 0  9990
2 14440  82.9252 186.4133 0113800 292.3563 119.9391 13.61405155878762
Source of the keplerian elements: AFSPC